This is the latest recevied weather packets stored in our database for station/object N4ASP-13. If no packets are shown the sender has not sent any weather packets the latest 10 day(s).
| Time | Temp. | Humidity | Pressure | Rain* | Wind** | Luminosity | Snow |
|---|---|---|---|---|---|---|---|
| 1777408690 | 14.44° C | 90% | 1017.6 hPa | 0 mm | - | 309 W/m² | - |
| 1777408629 | 14.44° C | 90% | 1017.6 hPa | 0 mm | - | 309 W/m² | - |
| 1777408568 | 14.44° C | 90% | 1017.8 hPa | 0 mm | - | 306 W/m² | - |
| 1777408498 | 14.44° C | 90% | 1017.7 hPa | 0 mm | - | 306 W/m² | - |
| 1777408439 | 14.44° C | 90% | 1017.7 hPa | 0 mm | - | 274 W/m² | - |
| 1777408378 | 14.44° C | 90% | 1017.8 hPa | 0 mm | - | 271 W/m² | - |
| 1777408318 | 14.44° C | 90% | 1017.8 hPa | 0 mm | - | 276 W/m² | - |
| 1777408259 | 14.44° C | 90% | 1017.8 hPa | 0 mm | - | 269 W/m² | - |
| 1777408195 | 14.44° C | 90% | 1017.9 hPa | 0 mm | - | 283 W/m² | - |
| 1777408134 | 14.44° C | 90% | 1017.8 hPa | 0 mm | - | 299 W/m² | - |
| 1777408073 | 14.44° C | 90% | 1017.9 hPa | 0 mm | - | 244 W/m² | - |
| 1777408012 | 14.44° C | 90% | 1017.9 hPa | 0 mm | - | 250 W/m² | - |
| 1777407953 | 14.44° C | 90% | 1017.8 hPa | 0 mm | - | 257 W/m² | - |
| 1777407888 | 14.44° C | 90% | 1017.8 hPa | 0 mm | - | 257 W/m² | - |
| 1777407828 | 14.44° C | 90% | 1017.9 hPa | 0 mm | - | 264 W/m² | - |
| 1777407768 | 14.44° C | 90% | 1017.9 hPa | 0 mm | - | 255 W/m² | - |
| 1777407710 | 14.44° C | 90% | 1017.8 hPa | 0 mm | - | 237 W/m² | - |
| 1777407647 | 14.44° C | 90% | 1017.8 hPa | 0 mm | - | 258 W/m² | - |
| 1777407577 | 14.44° C | 90% | 1017.9 hPa | 0 mm | - | 294 W/m² | - |
| 1777407517 | 14.44° C | 90% | 1017.9 hPa | 0 mm | - | 294 W/m² | - |
| 1777407457 | 14.44° C | 90% | 1017.9 hPa | 0 mm | - | 264 W/m² | - |
| 1777407397 | 14.44° C | 90% | 1017.9 hPa | 0 mm | - | 274 W/m² | - |
| 1777407337 | 14.44° C | 90% | 1018 hPa | 0 mm | - | 306 W/m² | - |
| 1777407273 | 14.44° C | 90% | 1018 hPa | 0 mm | - | 244 W/m² | - |
| 1777407212 | 14.44° C | 90% | 1018 hPa | 0 mm | - | 258 W/m² | - |
* Rain latest hour (hover to see other rain measurements)
** Current wind speed in m/s (hover to see current wind gust speed)